Wetbulb
44.39 43.72 43.09 42.11 40.32 39.77 40.15 40.65 41.12 41.33 43.56 42.91 41.88 39.57 36.76 35.20 33.94 34.24 35.68 35.83 36.52 36.95 36.02 36.37 37.09 38.39 37.95 38.23 40.07 39.62 39.80 40.65 42.06 42.02 43.47 46.79 48.89 47.37 47.88 47.75 46.82 46.70 46.90
42.64 42.71 41.48 41.00 39.74 38.92 39.11 39.39 40.30 40.39 42.04 42.72 42.66 41.68 37.79 35.36 34.35 33.91 34.28 35.35 35.84 36.42 36.45 35.05 35.15 35.47 35.87 35.89 36.55 38.45 38.08 38.52 40.48 39.20 40.53 39.41 45.29 46.39 45.83 45.45 44.90 44.06 44.74
41.89 42.34 41.30 40.38 38.90 38.14 37.89 38.78 38.88 39.27 40.01 41.81 41.66 39.85 38.54 36.11 33.86 32.62 32.16 33.54 34.92 35.89 35.43 34.66 34.34 34.13 34.60 34.10 34.55 34.80 36.81 35.44 37.21 38.47 40.08 37.11 36.70 40.26 46.45 42.72 42.11 41.92 41.60
42.61 43.04 41.74 39.30 39.02 38.52 37.80 38.25 38.19 37.62 37.98 39.08 40.70 39.40 38.38 35.57 33.25 31.71 32.04 32.32 33.55 34.04 34.95 34.51 33.76 33.42 33.32 32.64 33.77 34.85 33.94 36.40 34.78 36.61 38.86 40.94 40.84 38.96 37.90 42.43 40.04 39.99 39.12
41.96 42.19 41.59 41.55 39.97 39.03 36.89 36.65 36.47 35.93 35.13 34.92 36.62 35.91 33.59 32.79 31.60 31.39 31.01 31.10 31.42 32.66 33.79 33.27 32.36 32.18 32.63 32.16 32.38 32.31 32.35 33.28 33.26 34.43 34.42 34.91 39.26 39.74 38.57 36.52 39.27 39.64 39.38
41.09 42.37 41.66 40.99 39.48 38.07 35.98 34.54 34.72 33.81 33.78 33.14 32.90 32.82 31.59 30.62 30.03 29.52 29.21 29.70 30.20 30.83 31.56 32.89 31.68 31.51 31.22 30.95 31.26 31.83 31.39 31.84 31.74 32.00 32.34 33.44 32.40 33.16 34.95 34.83 35.45 33.82 38.40
40.32 41.15 40.46 39.70 38.63 36.68 34.47 33.91 33.76 32.64 32.60 31.76 31.70 31.51 30.82 30.58 29.76 28.43 27.91 29.39 28.56 28.85 29.39 30.20 30.00 30.03 30.72 30.89 30.15 30.18 29.99 30.23 30.34 30.11 30.60 31.56 32.93 34.24 33.31 32.14 31.28 31.36 35.37
40.11 40.49 40.16 39.46 38.31 36.60 34.48 34.09 33.06 32.02 32.10 31.51 31.23 30.99 30.84 30.32 30.62 29.80 28.43 29.43 29.00 27.46 29.28 28.98 29.13 29.35 29.99 30.25 29.56 28.73 28.60 27.30 28.92 28.52 29.05 30.15 31.10 32.20 32.83 31.55 29.82 27.72 30.00
35.57 35.56 35.76 37.66 37.16 36.22 35.58 34.45 33.57 32.91 32.12 31.76 30.60 30.10 30.27 30.35 30.09 29.79 29.22 30.31 29.88 30.68 28.77 29.20 29.04 28.82 28.85 29.11 28.72 27.96 27.23 26.49 27.12 27.39 27.64 28.54 29.79 30.30 31.25 32.23 31.66 29.01 25.22
30.26 30.43 30.53 30.42 31.84 35.12 35.90 34.73 34.25 33.15 31.83 31.52 30.64 30.59 29.31 29.43 28.89 29.93 30.83 30.95 30.89 31.25 30.90 30.53 28.97 29.06 29.62 29.15 28.36 27.38 27.79 26.58 26.36 26.78 26.15 26.37 27.60 27.94 28.61 29.67 30.09 29.77 28.36
28.57 28.72 29.45 30.09 30.54 30.82 30.13 30.45 31.21 31.28 30.09 30.19 30.12 30.41 29.61 29.59 31.30 31.82 31.58 30.82 30.93 30.91 29.81 29.41 28.75 28.81 28.80 28.75 27.86 27.72 28.52 27.90 27.00 25.97 25.85 26.06 26.01 25.95 26.42 26.87 27.67 27.67 27.83
29.89 29.95 29.86 29.48 29.09 28.92 29.78 30.06 30.42 29.57 27.55 28.12 28.15 28.71 30.71 32.78 30.47 30.13 30.50 30.07 29.28 29.84 29.16 29.54 29.41 28.91 28.53 28.56 27.73 26.85 26.52 27.87 26.82 26.46 25.45 25.49 28.16 24.76 25.38 25.51 25.51 25.80 25.84
29.98 29.21 28.49 28.18 28.67 28.78 28.74 28.85 30.13 31.75 31.05 31.42 31.26 31.56 31.09 28.80 28.33 29.07 29.82 30.65 30.56 29.55 28.83 28.58 27.54 27.36 27.59 26.97 26.57 25.87 25.98 26.52 27.85 27.60 25.53 24.69 24.41 24.07 24.01 25.27 25.02 26.04 28.08
29.29 28.11 27.05 26.62 26.92 27.26 27.71 29.00 29.65 30.01 30.76 31.20 30.53 30.37 30.16 29.68 29.59 30.29 30.54 31.01 30.30 28.56 28.41 27.83 27.02 27.01 27.12 27.20 26.29 25.99 25.11 24.90 27.61 28.44 26.83 24.79 23.99 23.75 23.93 25.78 26.26 27.41 26.41
27.33 26.87 25.95 25.17 24.16 24.93 25.63 27.06 27.46 28.37 29.03 28.82 29.57 29.94 30.48 30.42 30.74 31.02 30.00 28.90 28.43 27.89 27.38 27.02 27.06 26.37 25.80 27.06 25.68 25.89 24.52 23.93 23.65 25.80 28.47 28.62 28.10 29.84 27.91 25.85 24.62 26.17 26.53
25.09 24.79 24.88 24.53 23.53 22.27 24.13 24.73 25.11 26.49 27.29 26.98 27.26 28.66 29.35 29.92 29.40 29.01 29.36 27.64 26.93 26.43 26.18 25.80 26.11 26.28 27.01 29.58 30.97 30.63 25.65 24.84 24.73 24.30 25.20 27.52 30.06 29.41 32.18 32.35 32.37 29.33 26.27
23.73 23.21 22.66 23.31 23.57 24.10 23.50 21.09 22.70 24.05 24.82 25.50 26.97 27.43 27.92 28.04 28.29 28.76 27.99 27.05 26.59 26.55 25.59 25.29 24.78 23.76 24.21 29.41 30.56 31.19 28.48 27.37 25.10 23.78 24.06 25.53 28.36 29.41 25.35 28.58 30.87 31.15 32.88
22.54 22.46 22.39 22.36 23.59 22.21 20.99 20.97 20.83 21.03 21.75 22.82 23.18 24.91 25.32 25.40 26.23 26.37 26.01 26.10 26.24 25.61 24.88 24.33 24.36 23.56 23.74 28.91 30.01 30.61 27.73 25.04 23.60 22.91 22.28 21.84 22.84 25.22 24.60 23.74 23.36 23.65 24.75
22.01 21.65 20.17 20.49 20.64 19.35 18.89 18.75 19.09 18.44 18.76 19.44 21.03 22.88 22.68 22.12 22.33 22.37 21.83 22.25 22.13 21.50 21.12 22.04 21.01 19.88 19.59 27.27 28.57 28.44 24.57 23.43 21.75 22.42 21.59 21.17 21.68 26.50 30.23 26.57 23.68 23.44 24.50
21.01 20.45 18.92 20.01 17.46 16.89 15.51 16.48 17.09 16.42 16.96 18.98 20.03 21.02 20.97 20.45 19.48 19.81 19.93 20.62 20.45 21.87 22.15 21.99 20.29 22.14 20.65 25.44 27.21 27.05 24.29 21.54 21.90 20.86 22.22 27.33 25.63 28.48 30.02 26.03 23.73 23.11 23.84
19.23 19.34 17.10 14.61 14.88 16.24 14.78 14.14 15.09 14.74 18.36 19.89 19.70 19.56 19.24 18.20 17.23 17.36 17.93 18.13 17.56 18.39 16.22 17.51 16.36 16.60 18.68 18.66 25.71 26.91 23.85 22.84 22.28 22.15 22.00 23.29 27.42 28.71 30.92 30.91 25.08 25.22 26.43
16.24 14.89 11.82 12.19 14.01 14.35 13.20 13.24 12.54 16.23 16.30 16.70 16.48 16.11 15.59 16.51 18.95 16.90 16.73 16.65 14.45 12.92 12.49 12.87 14.27 16.80 17.84 22.84 24.31 26.17 26.83 26.66 23.55 22.45 22.97 23.23 27.33 28.39 29.88 29.45 30.29 30.89 29.82
14.26 15.15 12.42 12.41 12.76 13.50 13.39 11.91 13.59 14.42 14.04 13.21 12.95 12.77 13.96 16.13 17.01 15.68 15.37 15.05 12.81 10.84 11.91 13.20 13.78 15.12 18.84 19.47 23.98 25.58 26.64 27.33 25.07 25.39 25.98 27.51 27.72 28.18 28.71 30.24 30.39 30.75 26.81
12.25 11.24 9.14 8.99 9.74 11.27 14.07 11.55 12.13 13.18 12.04 10.93 10.56 11.45 11.07 13.26 13.38 14.87 14.89 13.82 10.79 9.13 12.56 13.18 13.77 14.45 16.09 17.48 19.55 21.03 20.98 23.80 23.52 24.30 23.36 26.09 28.14 28.38 27.16 27.30 28.35 24.93 25.40
11.48 10.89 9.74 10.47 10.39 9.95 9.86 9.94 12.91 11.01 10.33 10.57 10.23 10.43 12.06 10.75 10.93 12.59 12.20 12.67 13.69 14.70 14.26 14.95 14.99 14.37 14.02 17.53 22.26 22.17 20.67 19.98 22.04 22.53 20.33 20.09 20.54 21.67 23.80 25.84 24.36 22.26 23.48
10.22 9.76 9.92 9.89 9.08 9.01 9.20 10.10 10.57 10.67 8.69 8.16 9.52 9.11 10.37 9.52 11.21 10.48 10.22 16.89 18.86 20.72 21.83 22.87 21.99 21.95 24.72 26.08 27.03 27.62 27.13 27.37 27.50 23.96 19.02 18.58 19.17 19.05 20.86 22.66 21.61 21.34 22.13
MSLP
1014.83 1015.67 1016.35 1017.02 1017.77 1018.30 1018.75 1019.13 1019.52 1019.84 1020.11 1020.44 1020.79 1021.06 1021.39 1021.56 1021.66 1021.56 1021.35 1021.40 1021.22 1021.00 1021.20 1020.93 1020.67 1020.51 1020.35 1020.27 1019.95 1019.66 1019.44 1019.09 1018.71 1018.01 1017.83 1017.78 1017.45 1017.52 1017.64 1017.62 1017.72 1017.71 1017.89
1014.85 1015.70 1016.44 1017.06 1017.54 1018.05 1018.66 1019.05 1019.37 1019.76 1020.02 1020.25 1020.46 1020.62 1021.09 1021.56 1021.66 1021.66 1021.47 1021.45 1021.42 1021.28 1021.30 1021.42 1021.40 1021.20 1021.12 1020.87 1020.77 1020.37 1020.14 1020.00 1019.67 1019.50 1018.84 1018.56 1018.12 1018.19 1018.44 1018.45 1018.50 1018.51 1018.57
1014.33 1015.25 1016.15 1016.74 1017.49 1018.07 1018.55 1018.96 1019.30 1019.63 1019.88 1020.15 1020.39 1020.68 1021.01 1021.52 1021.81 1021.89 1021.74 1021.69 1021.53 1021.38 1021.53 1021.58 1021.62 1021.67 1021.53 1021.51 1021.42 1021.18 1020.91 1020.80 1020.30 1020.06 1020.11 1019.60 1019.35 1019.05 1018.78 1019.18 1019.32 1019.17 1019.15
1013.90 1014.79 1015.69 1016.61 1017.23 1017.81 1018.46 1018.84 1019.28 1019.67 1019.97 1020.18 1020.43 1020.73 1021.04 1021.51 1021.73 1021.86 1022.11 1022.05 1021.83 1021.76 1021.74 1021.80 1021.89 1021.98 1022.02 1021.89 1021.65 1021.55 1021.47 1021.17 1021.15 1020.68 1020.53 1020.37 1020.36 1019.82 1019.68 1019.64 1019.86 1019.87 1019.90
1013.44 1014.26 1015.11 1015.82 1016.77 1017.64 1018.34 1018.87 1019.30 1019.72 1019.99 1020.20 1020.37 1020.78 1021.20 1021.49 1021.88 1022.15 1022.40 1022.49 1022.49 1022.21 1021.96 1021.98 1022.22 1022.29 1022.27 1022.23 1022.09 1021.89 1021.73 1021.62 1021.66 1021.57 1021.31 1020.95 1020.77 1020.65 1020.65 1020.33 1020.11 1020.22 1020.35
1013.42 1014.38 1015.21 1016.13 1017.01 1017.77 1018.41 1018.97 1019.45 1019.92 1020.16 1020.38 1020.59 1020.84 1021.27 1021.62 1021.99 1022.48 1022.73 1022.85 1022.83 1022.75 1022.49 1022.29 1022.33 1022.44 1022.45 1022.44 1022.51 1022.38 1022.18 1021.91 1021.76 1021.80 1021.75 1021.63 1021.46 1021.28 1021.21 1021.12 1020.90 1020.88 1020.77
1013.95 1014.84 1015.54 1016.29 1017.20 1018.06 1018.65 1019.15 1019.61 1020.07 1020.35 1020.63 1020.85 1021.12 1021.40 1021.69 1022.06 1022.45 1022.80 1022.91 1023.01 1023.11 1022.93 1022.69 1022.67 1022.69 1022.60 1022.54 1022.47 1022.49 1022.46 1022.30 1022.16 1022.09 1021.97 1021.85 1021.86 1021.67 1021.51 1021.50 1021.42 1021.21 1020.92
1014.68 1015.57 1016.05 1016.61 1017.32 1018.05 1018.70 1019.18 1019.59 1020.04 1020.43 1020.73 1021.02 1021.27 1021.45 1021.81 1022.23 1022.55 1022.72 1022.85 1022.93 1023.00 1023.05 1023.01 1022.90 1022.83 1022.69 1022.55 1022.53 1022.57 1022.50 1022.45 1022.34 1022.25 1022.16 1022.01 1021.91 1021.88 1021.79 1021.67 1021.65 1021.60 1021.35
1016.69 1017.14 1017.40 1017.67 1018.09 1018.58 1019.03 1019.40 1019.80 1020.19 1020.52 1020.79 1021.08 1021.33 1021.56 1021.74 1022.08 1022.35 1022.58 1022.75 1022.85 1022.84 1022.97 1022.99 1022.94 1022.87 1022.79 1022.64 1022.57 1022.64 1022.58 1022.58 1022.51 1022.37 1022.28 1022.23 1022.13 1022.04 1021.96 1021.83 1021.70 1021.73 1021.94
1018.32 1018.89 1018.85 1019.11 1019.31 1019.40 1019.54 1019.78 1019.96 1020.25 1020.60 1020.91 1021.07 1021.27 1021.40 1021.59 1021.78 1022.06 1022.29 1022.47 1022.66 1022.71 1022.77 1022.93 1022.93 1022.87 1022.79 1022.78 1022.77 1022.75 1022.68 1022.63 1022.55 1022.45 1022.38 1022.33 1022.26 1022.21 1022.21 1022.15 1022.03 1021.91 1021.98
1019.44 1020.34 1020.33 1020.49 1020.71 1020.69 1020.55 1020.49 1020.45 1020.52 1020.78 1020.98 1021.27 1021.59 1021.71 1021.89 1021.99 1022.06 1022.01 1022.23 1022.49 1022.67 1022.81 1022.90 1022.95 1022.99 1022.93 1022.83 1022.90 1022.84 1022.77 1022.72 1022.60 1022.50 1022.44 1022.35 1022.29 1022.31 1022.27 1022.22 1022.17 1022.13 1022.13
1020.68 1021.30 1021.31 1021.55 1021.67 1021.73 1021.78 1021.79 1021.61 1021.36 1021.51 1021.47 1021.73 1021.93 1022.14 1022.22 1022.26 1022.24 1022.27 1022.34 1022.55 1022.62 1022.69 1022.85 1022.92 1022.93 1022.95 1022.92 1022.93 1022.92 1022.84 1022.65 1022.46 1022.28 1022.25 1022.27 1022.24 1022.50 1022.47 1022.31 1022.24 1022.15 1022.13
1021.77 1022.00 1022.27 1022.61 1022.63 1022.49 1022.52 1022.50 1022.46 1022.40 1022.18 1021.86 1022.13 1022.25 1022.25 1022.30 1022.23 1022.37 1022.47 1022.36 1022.53 1022.56 1022.64 1022.76 1022.80 1022.81 1022.78 1022.75 1022.72 1022.75 1022.72 1022.60 1022.44 1022.31 1022.12 1021.99 1022.13 1022.26 1022.41 1022.34 1022.30 1022.23 1022.03
1022.93 1023.15 1023.41 1023.90 1023.80 1023.74 1023.55 1023.30 1023.12 1022.98 1022.95 1022.78 1022.53 1022.49 1022.53 1022.30 1022.22 1022.32 1022.53 1022.46 1022.56 1022.55 1022.58 1022.59 1022.60 1022.52 1022.59 1022.52 1022.40 1022.33 1022.29 1022.33 1022.21 1022.18 1022.11 1022.11 1021.99 1021.87 1021.92 1022.05 1021.96 1021.94 1022.17
1023.25 1023.78 1024.08 1024.66 1024.57 1024.45 1024.26 1024.00 1023.66 1023.26 1023.18 1023.11 1023.10 1022.85 1022.59 1022.54 1022.44 1022.37 1022.39 1022.47 1022.53 1022.49 1022.55 1022.51 1022.41 1022.34 1022.36 1022.25 1022.11 1021.99 1021.92 1022.01 1021.95 1021.99 1021.87 1021.68 1021.57 1021.61 1021.45 1021.68 1021.50 1021.76 1021.98
1023.99 1024.34 1024.29 1024.78 1025.07 1025.01 1024.83 1024.72 1024.24 1023.72 1023.29 1023.22 1023.04 1022.97 1022.79 1022.54 1022.48 1022.55 1022.27 1022.29 1022.31 1022.26 1022.31 1022.22 1022.11 1022.04 1021.92 1021.73 1021.41 1021.20 1021.35 1021.46 1021.49 1021.45 1021.41 1021.22 1021.14 1021.10 1020.84 1020.59 1020.81 1021.15 1021.36
1024.73 1025.00 1025.36 1025.39 1025.92 1025.50 1025.24 1025.13 1024.71 1024.23 1023.80 1023.44 1023.18 1023.09 1022.67 1022.69 1022.54 1022.69 1022.38 1022.20 1022.19 1022.23 1022.17 1022.03 1021.92 1021.75 1021.55 1021.31 1021.00 1020.71 1020.58 1020.83 1020.91 1020.87 1020.91 1020.78 1020.76 1020.65 1020.47 1020.41 1020.31 1020.31 1020.59
1025.13 1025.63 1025.99 1026.09 1026.05 1025.81 1025.59 1025.34 1024.94 1024.47 1024.12 1023.73 1023.40 1023.27 1022.95 1022.73 1022.59 1022.63 1022.29 1022.13 1022.08 1022.02 1021.91 1021.73 1021.53 1021.39 1021.12 1020.80 1020.49 1020.20 1020.06 1020.11 1020.22 1020.27 1020.31 1020.37 1020.23 1020.15 1020.03 1020.04 1020.23 1020.24 1020.16
1025.88 1026.07 1026.42 1026.20 1026.02 1025.86 1025.58 1025.35 1025.09 1024.68 1024.33 1023.99 1023.74 1023.49 1023.16 1022.91 1022.88 1022.66 1022.31 1022.02 1021.86 1021.75 1021.57 1021.33 1021.16 1021.00 1020.70 1020.44 1020.08 1019.75 1019.63 1019.56 1019.58 1019.63 1019.65 1019.62 1019.55 1019.45 1019.28 1019.35 1019.58 1019.54 1019.54
1026.44 1026.62 1026.61 1026.37 1026.46 1026.07 1025.72 1025.31 1025.02 1024.69 1024.26 1023.87 1023.66 1023.33 1023.04 1022.95 1022.87 1022.51 1022.12 1021.74 1021.47 1021.21 1020.99 1020.73 1020.58 1020.40 1020.03 1019.85 1019.47 1019.15 1019.08 1018.94 1018.97 1018.95 1018.89 1018.76 1018.59 1018.53 1018.39 1018.36 1018.59 1018.77 1018.83
1026.73 1026.71 1026.70 1026.68 1026.33 1025.97 1025.61 1025.23 1025.00 1024.72 1024.28 1023.90 1023.54 1023.18 1022.95 1022.74 1022.41 1021.99 1021.69 1021.43 1021.14 1020.85 1020.66 1020.32 1020.07 1019.84 1019.60 1019.21 1018.83 1018.50 1018.26 1018.13 1018.08 1018.05 1018.03 1017.94 1017.71 1017.41 1017.05 1017.16 1017.51 1017.75 1018.14
1026.91 1026.89 1027.01 1026.73 1025.90 1025.72 1025.46 1025.26 1025.06 1024.58 1024.26 1023.82 1023.45 1023.10 1022.82 1022.51 1022.01 1021.69 1021.31 1020.97 1020.81 1020.57 1020.24 1019.91 1019.57 1019.17 1018.81 1018.43 1017.98 1017.57 1017.31 1017.13 1016.98 1016.96 1016.98 1016.97 1016.86 1016.59 1016.29 1016.21 1016.33 1016.85 1017.14
1026.95 1026.72 1026.74 1026.40 1025.87 1025.78 1025.46 1025.16 1024.82 1024.51 1024.10 1023.78 1023.44 1023.06 1022.61 1022.21 1021.82 1021.38 1020.96 1020.63 1020.41 1020.13 1019.82 1019.44 1018.95 1018.47 1018.06 1017.69 1017.26 1016.82 1016.42 1016.08 1015.86 1015.91 1015.83 1015.91 1015.96 1015.86 1015.61 1015.47 1015.57 1015.97 1016.28
1027.06 1026.61 1026.31 1026.18 1025.97 1025.72 1025.46 1025.12 1024.69 1024.32 1024.05 1023.63 1023.22 1022.83 1022.46 1021.96 1021.40 1021.12 1020.78 1020.41 1020.08 1019.74 1019.33 1018.83 1018.24 1017.75 1017.36 1017.02 1016.62 1016.27 1016.00 1015.79 1015.55 1015.35 1015.29 1015.22 1014.97 1014.97 1015.09 1015.28 1015.46 1015.81 1016.23
1026.93 1026.34 1026.09 1025.94 1025.63 1025.42 1025.17 1024.83 1024.43 1024.19 1023.83 1023.37 1023.02 1022.65 1022.17 1021.69 1021.23 1020.81 1020.45 1020.02 1019.50 1019.10 1018.36 1017.76 1017.28 1016.81 1016.37 1015.91 1015.56 1015.32 1015.24 1015.06 1014.89 1014.72 1014.82 1014.85 1014.84 1014.93 1014.75 1014.79 1015.10 1015.59 1016.18
1026.39 1026.05 1025.93 1025.74 1025.50 1025.26 1024.90 1024.51 1024.17 1023.82 1023.51 1023.14 1022.64 1022.29 1021.77 1021.40 1020.93 1020.46 1019.89 1019.38 1018.69 1017.95 1017.20 1016.52 1015.99 1015.56 1015.02 1014.51 1014.15 1013.73 1013.55 1013.39 1013.40 1013.52 1013.83 1013.96 1014.07 1014.15 1014.27 1014.41 1014.65 1015.32 1015.81
Wind_Speed
8 8 9 9 8 7 8 7 7 5 4 2 3 2 3 2 3 4 5 6 5 6 6 4 5 5 7 6 6 3 5 7 8 2 3 4 8 10 8 7 8 11 10
8 8 9 8 10 8 8 7 6 5 4 2 2 2 3 3 3 2 4 5 5 6 6 5 5 6 5 7 7 6 4 4 6 4 1 3 1 6 7 6 7 9 7
11 10 12 11 8 8 8 7 7 6 4 4 3 3 4 3 2 1 2 2 5 5 5 6 5 5 4 4 4 5 6 3 3 7 3 3 2 3 3 7 5 7 7
7 8 11 8 10 8 7 7 7 6 4 4 3 4 3 3 2 2 2 3 4 5 5 5 5 5 3 5 4 4 3 3 4 3 4 3 3 2 2 3 4 5 7
9 10 12 12 7 8 8 7 7 6 4 4 4 3 2 2 2 3 4 3 3 5 5 5 5 5 4 4 5 5 5 3 2 3 3 3 1 3 2 4 2 2 4
7 5 6 7 6 6 7 7 7 5 4 4 3 4 6 5 4 2 3 2 1 3 4 5 5 4 4 4 4 4 4 3 3 2 3 2 1 1 1 2 3 3 2
6 6 8 7 7 8 7 6 7 6 5 5 5 4 4 4 5 4 3 3 1 1 2 3 3 3 2 3 3 3 3 4 2 2 2 2 1 1 1 1 2 1 1
4 3 4 6 7 7 7 7 7 6 6 5 5 4 5 4 3 3 2 2 2 2 0 2 3 3 3 3 3 2 2 2 1 2 2 1 1 1 1 2 1 2 1
12 11 10 7 5 5 5 5 6 5 5 5 5 4 4 5 4 4 3 2 2 3 2 1 0 2 2 3 3 2 3 2 1 2 2 1 1 2 2 1 2 2 1
14 13 13 12 10 6 4 5 4 5 5 5 5 4 5 5 5 5 5 4 3 2 1 1 1 2 2 2 2 2 2 1 1 1 2 2 2 3 2 1 1 1 4
12 9 9 10 10 10 10 8 5 4 4 4 4 4 4 3 3 2 3 3 2 1 2 2 2 3 3 3 2 2 2 1 0 0 1 2 2 2 2 2 1 1 1
11 8 10 8 8 8 8 8 7 8 7 6 5 5 4 1 0 2 3 3 1 1 1 2 3 4 3 3 3 4 4 5 4 4 2 2 1 3 3 2 2 2 2
8 8 10 10 9 8 7 6 7 7 6 5 4 4 2 3 3 3 3 2 3 3 2 2 4 4 4 4 4 4 5 5 5 5 4 4 3 3 2 2 3 2 1
8 9 9 8 8 7 7 7 7 5 6 6 5 4 4 4 1 1 4 4 4 4 4 4 5 4 5 5 5 5 5 5 4 4 4 5 5 5 4 4 4 3 3
9 8 8 7 7 7 6 7 6 5 5 5 4 4 3 5 4 2 4 3 3 4 4 5 5 5 5 5 5 6 5 5 5 5 5 5 7 11 9 5 4 3 3
7 7 7 6 5 5 5 6 6 6 4 4 4 4 5 4 3 4 4 4 5 5 5 5 5 6 5 11 15 12 7 6 6 5 5 5 10 11 15 14 15 11 6
6 7 7 6 4 5 5 5 6 6 6 5 5 5 4 4 4 4 4 4 5 5 6 6 5 6 6 14 17 17 7 7 7 6 5 5 5 11 6 11 15 13 13
6 5 4 4 4 4 5 5 5 6 5 6 5 5 5 5 4 4 4 4 4 5 6 7 7 7 6 15 17 18 9 5 6 6 6 6 6 8 7 5 6 6 6
3 2 3 3 4 4 5 5 5 4 4 5 5 5 5 5 5 6 6 5 5 5 5 6 6 6 6 15 18 16 7 6 7 7 6 6 7 13 20 10 9 8 7
3 3 4 3 4 5 5 4 5 4 5 5 5 5 5 5 6 6 7 5 5 7 6 8 6 10 9 14 19 16 7 7 6 6 8 17 14 19 20 11 7 9 8
4 4 5 4 5 5 3 4 4 5 5 7 6 6 6 6 7 6 4 5 6 7 6 8 6 7 9 10 19 20 10 8 8 7 7 7 18 21 22 22 9 10 8
5 5 4 5 5 6 4 5 6 6 8 7 8 7 6 7 8 8 7 7 6 6 6 6 7 7 8 15 17 20 20 18 10 10 8 9 18 19 21 16 16 20 16
5 5 4 5 6 6 5 6 8 9 7 7 8 8 8 8 10 9 8 7 5 4 6 6 7 7 7 7 17 19 20 20 13 8 13 20 20 20 18 21 18 18 5
6 3 3 6 6 5 8 7 8 8 8 9 8 7 6 10 6 6 7 6 4 4 7 7 8 8 7 7 8 8 9 14 12 13 9 9 14 17 14 10 9 4 3
5 3 5 7 8 6 8 7 10 7 8 8 6 7 8 7 7 7 6 7 7 9 9 9 9 9 9 10 15 13 8 8 11 12 5 5 6 5 5 6 7 6 6
5 7 8 9 10 9 10 9 7 8 6 8 8 6 7 6 7 6 8 16 19 22 23 24 19 10 18 23 23 23 23 23 21 10 6 7 7 6 5 4 6 6 8
Wind_Direction
194 173 166 160 151 151 151 161 157 165 151 135 128 132 105 84 54 50 55 43 37 41 27 31 30 21 33 16 14 350 13 13 353 24 10 50 65 54 47 46 42 35 33
165 169 166 167 172 160 164 163 167 164 167 155 156 135 141 102 108 83 62 55 50 44 58 42 34 34 30 28 17 12 3 5 12 15 319 14 82 60 56 48 46 42 33
183 176 178 183 163 169 172 166 167 165 157 148 117 88 87 82 96 64 67 55 73 73 69 64 59 40 37 32 23 15 25 8 354 30 24 14 15 344 53 49 50 54 41
174 181 179 174 181 180 163 161 157 153 155 152 145 160 169 161 195 140 122 82 74 72 68 67 61 56 41 38 18 27 25 36 19 346 13 35 346 344 316 96 36 54 50
179 180 184 187 171 152 167 159 146 146 141 149 161 157 143 116 113 104 122 98 55 61 67 67 54 46 40 32 30 16 27 36 52 12 341 17 329 51 323 296 344 84 48
186 161 130 126 138 143 146 146 143 142 137 126 114 148 149 146 130 128 128 135 84 42 53 66 67 57 48 37 16 7 20 26 56 38 23 17 42 34 336 294 327 321 92
142 158 153 152 147 158 151 146 146 149 141 116 96 113 131 143 153 160 164 159 109 20 29 54 48 38 29 35 36 31 27 12 26 10 356 359 320 273 213 170 273 307 335
97 130 152 148 151 151 151 150 157 148 147 134 121 115 119 126 137 153 153 154 136 154 61 51 43 24 19 16 25 25 343 33 6 354 3 322 345 332 255 207 147 323 283
44 46 43 50 91 125 149 153 147 148 156 146 140 134 133 141 150 147 140 139 139 170 167 164 52 13 14 26 21 8 307 339 351 343 349 336 339 349 311 266 208 171 301
56 46 45 40 36 43 94 109 140 153 158 157 159 161 156 151 148 151 157 168 189 200 208 293 307 330 341 349 10 351 323 283 318 100 44 7 348 350 338 286 270 264 192
70 54 46 39 37 40 39 40 43 107 137 158 154 147 147 146 153 166 167 183 183 288 295 285 288 307 320 319 307 293 259 184 241 11 68 347 350 346 335 306 283 248 206
70 66 60 49 44 39 33 33 34 51 39 46 71 71 73 67 64 294 222 165 164 262 289 313 305 299 294 299 294 295 302 263 236 218 216 256 345 321 308 300 272 240 225
66 55 49 40 39 34 27 27 32 23 22 50 35 17 345 320 273 252 211 91 335 266 268 282 283 274 263 261 263 266 275 280 268 247 225 228 224 259 268 271 267 266 263
50 47 46 31 27 27 24 24 24 20 9 8 6 347 330 318 70 8 262 241 231 249 258 266 271 264 260 255 250 254 261 268 258 252 240 239 230 230 235 247 248 243 265
60 55 46 23 19 11 13 18 10 13 3 356 342 335 322 320 236 256 296 305 273 273 278 275 265 262 258 258 247 251 243 235 243 262 260 242 242 249 232 226 234 234 248
65 50 50 29 7 357 9 355 350 349 349 336 328 311 300 278 307 281 247 250 266 268 264 265 262 260 260 266 273 270 213 230 233 238 251 251 266 271 259 250 243 215 216
42 35 19 12 344 358 359 343 339 333 339 336 334 329 339 332 322 296 289 280 277 280 276 274 267 263 257 274 278 274 263 212 235 228 241 266 257 259 234 259 263 269 260
41 25 6 346 327 337 339 334 339 344 342 342 336 337 338 329 322 305 292 284 278 270 272 271 261 258 262 274 278 275 274 212 231 228 227 237 256 254 241 225 236 247 255
9 315 290 291 317 332 322 322 316 323 332 328 325 323 316 314 305 296 289 281 278 269 261 260 258 259 257 275 279 279 275 259 232 230 226 232 245 253 252 238 225 235 238
350 329 317 318 327 315 315 327 307 303 306 305 295 299 302 294 290 286 282 268 256 269 265 272 260 263 274 277 282 278 269 258 246 233 235 256 259 245 245 243 225 230 227
319 344 328 285 284 293 292 316 312 310 311 313 308 302 289 291 279 277 274 272 268 272 261 264 263 259 261 266 276 274 267 261 257 247 244 241 260 253 246 239 204 212 209
327 310 295 287 307 322 343 326 324 317 315 306 310 304 294 295 301 294 286 275 266 267 265 266 273 267 262 271 274 272 266 262 253 246 243 242 253 251 251 249 245 230 222
302 302 276 305 316 312 315 323 313 311 308 305 299 293 297 300 300 294 290 287 274 269 276 270 276 277 272 267 274 275 274 271 269 254 243 238 244 246 251 249 239 224 205
299 267 325 308 292 299 311 292 295 309 303 295 289 288 285 293 288 299 290 286 273 264 271 272 269 267 265 260 258 258 262 272 277 282 270 289 250 234 235 246 244 137 149
287 296 304 297 305 305 299 292 303 298 292 291 291 290 289 285 285 277 275 275 268 263 264 258 251 252 251 250 258 250 243 238 245 253 232 241 238 247 258 224 170 153 160
314 318 313 308 304 301 294 295 290 295 290 300 296 291 298 291 286 290 288 285 290 292 291 291 287 278 278 273 270 265 257 256 250 241 220 226 225 224 214 218 163 171 176